Location: Dötzum
(52.0808°N, 9.8063°E)
Time: 05:57:03
(UTC+00:00)

Cosmos 2228 - Pass Details

Date: 27 May 2022
Orbit: 586 x 617 km, 82.5° (Epoch: 26 June)

Event Time Altitude Azimuth Distance (km) Brightness Sun altitude
Rises 02:06:46 0° 345° (NNW) 2,896 7.1 -7.9°
Reaches altitude 10° 02:09:03 10° 341° (NNW) 1,983 6.1 -7.7°
Maximum altitude 02:13:18 52° 265° (W) 767 3.3 -7.3°
Drops below altitude 10° 02:17:29 10° 190° (S) 1,949 5.1 -6.9°
Enters shadow 02:19:00 - 186° (S) 2,553 5.7 -6.7°
